[[{"header":{"parameterUnit":"m.s-1","parameterCategory":1,"la1":30.2991,"la2":30.254,"lo1":-89.0895,"lo2":-89.0444,"dy":0.0017,"dx":0.0017,"nx":28,"ny":28,"refTime":"2025-07-04T03:00:00:Z","depth":0,"parameterNumber":2,"parameterNumberName":"U-component_of_WINDS"},"data":[0,0,0,0,0,0,0,0,0,0,0,0,0,0,0,0,0,0,0,0,0,0,0,0,0,0,0,0,0,0,0,0,0,0,0,0,0,0,0,0,0,0,0,0,0,0,0,0,0,0,0,0,0,0,0,0,0,0,2.1159,2.1161,0,2.1353,2.1355,2.1358,2.1408,2.1407,2.1405,2.1404,2.1604,2.161,2.1617,0,0,0,0,0,0,0,0,0,0,0,0,0,2.0832,2.0838,2.1159,2.1161,2.1164,2.1353,2.1356,2.1358,2.1408,2.1406,2.1405,2.1404,2.1602,2.1609,2.1617,0,0,0,0,0,0,0,0,0,0,0,0,0,2.0995,2.084,2.1158,2.1211,2.1218,2.1352,2.1356,2.1359,2.1408,2.1406,2.1405,2.1403,2.1599,2.1609,2.1618,2.1714,0,0,2.1648,2.1652,0,0,0,0,0,0,0,0,2.0986,2.1007,2.1201,2.1208,2.1215,2.1354,2.1314,2.1478,2.1409,2.1336,2.1404,2.1402,2.1522,2.1538,2.1579,2.1724,2.1732,2.1649,2.1655,2.1659,2.1661,0,0,0,0,0,0,0,2.0974,2.0999,2.1236,2.1204,2.1213,2.1226,2.1247,2.1345,2.1437,2.1342,2.1346,2.1369,2.1526,2.1569,2.1584,2.1735,2.1648,2.1657,2.1663,2.1667,2.197,2.1972,0,0,0,0,0,0,2.0954,2.0989,2.123,2.1242,2.1094,2.1233,2.1257,2.1312,2.1436,2.1453,2.137,2.137,2.1554,2.1573,2.1591,2.1712,2.1659,2.1668,2.1673,2.1968,2.1971,2.1973,0,0,0,0,0,0,2.0947,2.0975,2.1222,2.1117,2.1149,2.1241,2.1302,2.1316,2.136,2.1457,2.1474,2.1397,2.1553,2.1577,2.1684,2.172,2.1672,2.1681,2.1965,2.1969,2.1972,2.1954,0,0,0,0,0,0,2.0937,2.0972,2.1009,2.1117,2.1154,2.131,2.1304,2.1322,2.1376,2.1378,2.1487,2.1503,2.1554,2.1669,2.1693,2.1732,2.1688,2.1962,2.1967,2.1971,2.1952,2.1957,2.1961,0,0,0,0,0,2.0925,2.0996,2.101,2.1039,2.1202,2.1312,2.1333,2.139,2.1379,2.1417,2.148,2.15,2.1712,2.1679,2.1707,2.1749,2.196,2.1965,2.197,2.195,2.1956,2.1961,0,0,0,0,0,0,2.0889,2.1011,2.1028,2.1136,2.1213,2.132,2.137,2.1394,2.1476,2.1474,2.1541,2.1565,2.1667,2.1719,2.168,2.185,2.1836,2.1847,2.1811,2.1818,2.1822,2.1807,2.1696,0,0,0,0,0,2.0893,2.0972,2.1075,2.116,2.1198,2.1277,2.1327,2.1364,2.1447,2.148,2.155,2.163,2.1715,2.177,2.1853,2.1961,2.1985,2.2004,2.2008,2.2011,2.2019,2.2081,2.209,2.199,2.199,2.199,0,0,2.0903,2.098,2.1025,2.1155,2.1219,2.1299,2.1304,2.1389,2.1449,2.1493,2.1597,2.1652,2.1746,2.1853,2.1904,2.19,2.2053,2.2018,2.2019,2.2026,2.2087,2.2096,2.2105,2.1993,2.1993,2.1992,0,0,2.0963,2.1028,2.1107,2.1172,2.1269,2.1322,2.1341,2.1445,2.1483,2.1589,2.1623,2.1697,2.1841,2.1907,2.1959,2.2046,2.2068,2.2072,2.2093,2.2153,2.2161,2.2168,2.2199,2.2209,2.208,2.208,2.208,0,2.0963,2.1085,2.1144,2.1228,2.1284,2.1328,2.1408,2.1468,2.1588,2.1626,2.162,2.1803,2.1869,2.1993,2.2014,2.2055,2.2079,2.2059,2.2155,2.2163,2.217,2.2201,2.2212,2.208,2.208,2.208,2.208,0,2.108,2.1165,2.1217,2.1331,2.1394,2.1475,2.1547,2.1604,2.1636,2.1689,2.1797,2.1879,2.198,2.2012,2.2044,2.2141,2.2136,2.2141,2.2129,2.2179,2.2208,2.222,2.2079,2.2079,2.2079,2.2079,0,0,2.112,2.1268,2.1286,2.1339,2.1451,2.1517,2.1602,2.1701,2.1748,2.183,2.1902,2.2025,2.2031,2.2091,2.2131,2.2183,2.2247,2.2183,2.2186,2.2191,2.2359,2.2353,2.2365,2.2262,2.2265,2.2267,2.2351,0,2.1192,2.1344,2.1401,2.1525,2.1604,2.1648,2.1721,2.1798,2.1851,2.1927,2.1986,2.2071,2.2073,2.211,2.2163,2.2227,2.2281,2.2222,2.233,2.2334,2.2304,2.2381,2.2375,2.245,2.2363,2.2365,2.2366,0,2.1297,2.138,2.1512,2.1615,2.1651,2.1715,2.1812,2.1883,2.1972,2.2007,2.2074,2.2112,2.2202,2.2186,2.2312,2.2271,2.2319,2.2357,2.2362,2.2373,2.2352,2.2393,2.2475,2.2486,2.2385,2.2383,2.2382,0,2.1312,2.1457,2.1555,2.1599,2.1722,2.1767,2.1821,2.1908,2.1964,2.2049,2.2086,2.218,2.2231,2.2304,2.2366,2.2348,2.2487,2.2475,2.2518,2.2517,2.2544,2.2541,2.2634,2.2577,2.2577,2.2576,2.2576,0,2.1386,2.1465,2.1564,2.1624,2.1714,2.178,2.1867,2.1924,2.2001,2.2074,2.2118,2.2185,2.2263,2.2341,2.2391,2.2488,2.2511,2.2542,2.2554,2.2537,2.2533,2.2569,2.2565,2.2579,2.2579,2.2578,2.2578,0,2.1417,2.1487,2.1596,2.1704,2.1734,2.1795,2.1888,2.1949,2.2005,2.2096,2.2121,2.2209,2.2302,2.2372,2.2493,2.2527,2.263,2.2643,2.26,2.2606,2.2645,2.264,2.2763,2.2782,2.2713,2.2713,2.2714,0,2.1459,2.1521,2.1637,2.1688,2.1742,2.1824,2.1882,2.195,2.2009,2.2116,2.2164,2.2261,2.2342,2.249,2.2565,2.2658,2.2673,2.271,2.2687,2.2669,2.2673,2.2668,2.2675,2.2712,2.2713,2.2713,2.2713,0,2.1527,2.1559,2.164,2.1735,2.1803,2.1881,2.1959,2.1999,2.2082,2.2146,2.2242,2.2305,2.243,2.2525,2.2627,2.2683,2.2712,2.272,2.2735,2.2718,2.269,2.2705,2.2608,2.2716,2.2716,2.2716,2.2716,2.2716,2.1565,2.1622,2.1712,2.1803,2.1869,2.1942,2.2004,2.2068,2.215,2.2256,2.2292,2.2392,2.2481,2.262,2.2678,2.2757,2.2757,2.2778,2.2784,2.2788,2.2786,2.2679,2.2776,2.2776,2.2776,2.2776,2.2776,0,2.1634,2.1695,2.1777,2.1886,2.1957,2.198,2.2068,2.2126,2.2213,2.2294,2.2373,2.2485,2.2579,2.2662,2.2759,2.2807,2.2823,2.283,2.2827,2.2839,2.2781,2.2758,2.2816,2.2816,2.2816,2.2816,2.2816,2.2816,2.1678,2.1777,2.1819,2.1952,2.2013,2.211,2.2159,2.2227,2.2292,2.2414,2.2492,2.2546,2.2628,2.2733,2.282,2.2842,2.2876,2.288,2.2905,2.2848,2.2843,2.2839,2.2817,2.2887,2.2887,2.2956,2.2957,2.2957]},{"header":{"parameterUnit":"m.s-1","parameterCategory":1,"la1":30.2991,"la2":30.254,"lo1":-89.0895,"lo2":-89.0444,"dy":0.0017,"dx":0.0017,"nx":28,"ny":28,"refTime":"2025-07-04T03:00:00:Z","depth":0,"parameterNumber":3,"parameterNumberName":"V-component_of_WINDS"},"data":[0,0,0,0,0,0,0,0,0,0,0,0,0,0,0,0,0,0,0,0,0,0,0,0,0,0,0,0,0,0,0,0,0,0,0,0,0,0,0,0,0,0,0,0,0,0,0,0,0,0,0,0,0,0,0,0,0,0,0.1731,0.173,0,0.1658,0.1657,0.1656,0.1619,0.1619,0.1619,0.1619,0.1539,0.1537,0.1535,0,0,0,0,0,0,0,0,0,0,0,0,0,0.1835,0.1834,0.1731,0.173,0.1729,0.1658,0.1657,0.1656,0.1619,0.1619,0.1619,0.1619,0.154,0.1537,0.1535,0,0,0,0,0,0,0,0,0,0,0,0,0,0.1779,0.1833,0.1731,0.1703,0.1699,0.1658,0.1657,0.1655,0.1619,0.1619,0.1619,0.1619,0.154,0.1537,0.1534,0.1515,0,0,0.1525,0.1523,0,0,0,0,0,0,0,0,0.1782,0.1775,0.1708,0.1704,0.1701,0.1647,0.1664,0.1608,0.1619,0.1649,0.1619,0.1619,0.1575,0.1569,0.1555,0.1511,0.1508,0.1524,0.1522,0.1521,0.152,0,0,0,0,0,0,0,0.1786,0.1778,0.1702,0.1707,0.1702,0.1692,0.1684,0.1653,0.1613,0.1647,0.1644,0.1636,0.1573,0.1558,0.1553,0.1507,0.1524,0.1522,0.152,0.1518,0.1442,0.1442,0,0,0,0,0,0,0.1795,0.1781,0.1704,0.17,0.1742,0.169,0.1681,0.1664,0.1613,0.1605,0.1636,0.1634,0.1563,0.1556,0.155,0.1523,0.1521,0.1518,0.1516,0.1442,0.1442,0.1442,0,0,0,0,0,0,0.1798,0.1789,0.1707,0.174,0.1729,0.1688,0.167,0.1663,0.1648,0.1605,0.1597,0.1628,0.1563,0.1554,0.1524,0.152,0.1517,0.1514,0.1443,0.1442,0.1442,0.1471,0,0,0,0,0,0,0.1801,0.179,0.1783,0.174,0.1727,0.1684,0.167,0.1662,0.1643,0.1641,0.1596,0.1589,0.1562,0.1529,0.1521,0.1516,0.1511,0.1443,0.1442,0.1442,0.147,0.1471,0.1473,0,0,0,0,0,0.1805,0.1793,0.1783,0.1774,0.1718,0.1684,0.1676,0.1648,0.1643,0.1635,0.1608,0.159,0.1522,0.1526,0.1517,0.151,0.1443,0.1443,0.1442,0.1469,0.1471,0.1473,0,0,0,0,0,0,0.1835,0.1787,0.1775,0.175,0.1722,0.1678,0.1667,0.1651,0.1622,0.1621,0.1585,0.1575,0.1548,0.1526,0.1532,0.1489,0.148,0.1478,0.1504,0.1506,0.1507,0.1513,0.1509,0,0,0,0,0,0.184,0.1817,0.1776,0.1757,0.1744,0.1708,0.1692,0.1673,0.1641,0.1629,0.1599,0.1568,0.1539,0.1521,0.1493,0.1466,0.1456,0.1457,0.1459,0.146,0.1459,0.1443,0.1443,0.1441,0.1441,0.1441,0,0,0.1847,0.1818,0.1806,0.1763,0.1738,0.1715,0.1698,0.1674,0.1656,0.1625,0.1595,0.1571,0.1534,0.1506,0.1492,0.1487,0.1457,0.146,0.1462,0.1459,0.1442,0.1443,0.1443,0.1441,0.1441,0.1441,0,0,0.1849,0.1825,0.1807,0.1784,0.1748,0.1724,0.172,0.1679,0.1663,0.1632,0.1608,0.1585,0.1537,0.1512,0.1492,0.1485,0.1467,0.1476,0.1484,0.1469,0.1469,0.1469,0.1465,0.1465,0.1475,0.1475,0.1475,0,0.1863,0.1828,0.1799,0.1777,0.1758,0.173,0.1711,0.1689,0.1645,0.1632,0.1627,0.1566,0.1539,0.1504,0.1503,0.1488,0.1481,0.1481,0.1471,0.1471,0.147,0.1467,0.1466,0.1476,0.1476,0.1476,0.1476,0,0.1846,0.1822,0.1812,0.1772,0.1752,0.1731,0.1698,0.168,0.1663,0.1639,0.1608,0.1575,0.1539,0.1529,0.1511,0.1492,0.1489,0.1479,0.147,0.1472,0.1468,0.1467,0.1478,0.1478,0.1477,0.1477,0,0,0.1865,0.181,0.1807,0.1788,0.1746,0.1727,0.1704,0.167,0.1656,0.1626,0.1606,0.1566,0.1555,0.1534,0.1512,0.1499,0.1494,0.1489,0.1488,0.1491,0.147,0.1478,0.1477,0.1483,0.1482,0.1482,0.1473,0,0.1861,0.1821,0.1795,0.1764,0.1741,0.1714,0.1694,0.1666,0.1643,0.1619,0.1593,0.1566,0.1554,0.1541,0.1526,0.1498,0.149,0.1498,0.1462,0.1461,0.1472,0.1475,0.1484,0.1477,0.1471,0.1471,0.1471,0,0.1851,0.1824,0.1792,0.1753,0.1742,0.1725,0.1691,0.1669,0.1636,0.162,0.1596,0.1575,0.1548,0.1542,0.1504,0.1511,0.1494,0.1478,0.1477,0.1472,0.1466,0.147,0.1474,0.1473,0.1468,0.1468,0.1469,0,0.1867,0.1823,0.1798,0.1783,0.1736,0.1725,0.1705,0.1672,0.1653,0.1623,0.1611,0.1578,0.156,0.1534,0.1504,0.1503,0.1469,0.1461,0.1454,0.1455,0.1448,0.1449,0.145,0.1438,0.1438,0.1438,0.1438,0,0.1865,0.1847,0.1805,0.1789,0.1767,0.1736,0.1714,0.1692,0.1663,0.1641,0.1615,0.1595,0.1557,0.1532,0.1508,0.148,0.1472,0.1458,0.1451,0.146,0.1462,0.1448,0.1447,0.1438,0.1438,0.1438,0.1438,0,0.188,0.1851,0.1822,0.1781,0.1771,0.1756,0.172,0.1703,0.1679,0.1653,0.1644,0.1606,0.1576,0.1543,0.1501,0.1484,0.1457,0.1449,0.1469,0.1466,0.1461,0.1462,0.1453,0.145,0.1441,0.1441,0.1441,0,0.1881,0.1866,0.1824,0.1808,0.1789,0.1765,0.1746,0.1715,0.1696,0.1657,0.1645,0.1612,0.1585,0.1536,0.1504,0.1471,0.1461,0.1461,0.1456,0.1465,0.1461,0.1462,0.146,0.1462,0.1462,0.1462,0.1462,0,0.1884,0.1871,0.1846,0.1816,0.1795,0.1769,0.1742,0.173,0.1693,0.1673,0.1643,0.1621,0.1579,0.1546,0.151,0.1487,0.1468,0.1464,0.1461,0.1469,0.1481,0.1474,0.1473,0.1464,0.1464,0.1464,0.1464,0.1464,0.1891,0.1877,0.1845,0.1818,0.1795,0.177,0.1753,0.1727,0.1701,0.1665,0.1648,0.1617,0.1583,0.1532,0.151,0.1485,0.1479,0.1474,0.1473,0.1472,0.1474,0.1486,0.1478,0.1478,0.1477,0.1477,0.1477,0,0.1893,0.1872,0.1847,0.1811,0.179,0.1775,0.1745,0.1727,0.1701,0.1671,0.1645,0.1609,0.1578,0.1543,0.1509,0.1495,0.1486,0.1487,0.1488,0.1483,0.1481,0.1488,0.1496,0.1496,0.1496,0.1496,0.1496,0.1496,0.1892,0.1867,0.185,0.1812,0.179,0.1761,0.1744,0.1721,0.1698,0.166,0.1634,0.1612,0.158,0.1544,0.1514,0.1505,0.1493,0.1497,0.1485,0.1484,0.1483,0.1482,0.1487,0.1495,0.1495,0.1489,0.1489,0.1489]}]]